Weather History for Buffalo, WY

Change the Weather History Date:

Saturday, April 20, 2013

  Actual Average Record
Temperature  
Mean Temperature 43 °F 45 °F  
Max Temperature 53 °F 55 °F 68 °F (2012)
Min Temperature 32 °F 34 °F 17 °F (2008)
Degree Days  
Heating Degree Days 22 20  
Month to date heating degree days 580 468  
Since 1 July heating degree days 6464 6658  
Cooling Degree Days 0 0  
Month to date cooling degree days 0 0  
Year to date cooling degree days 0 0  
Moisture  
Dew Point 30 °F    
Average Humidity 59    
Maximum Humidity 79    
Minimum Humidity 39    
Precipitation  
Precipitation T in 0.04 in 0.75 in (1999)
Month to date precipitation 0.36 0.66  
Year to date precipitation 1.05 2.35  
Sea Level Pressure  
Sea Level Pressure 29.86 in    
Wind  
Wind Speed 7 mph (NW)    
Max Wind Speed 23 mph    
Max Gust Speed 29 mph    
Visibility 10 miles    
Events      
T = Trace of Precipitation, MM = Missing Value Source: NWS Daily Summary

Daily Weather History Graph

Daily Weather History Graph

Search for Another Location

Airport:

Trip Planner

Search our weather history database for the weather conditions in past years. The results will help you decide how hot, cold, wet, or windy it might be!

Date:

Astronomy

Apr. 20, 2013 Rise Set
Actual Time 6:14 AM MDT 7:57 PM MDT
Civil Twilight 5:43 AM MDT 8:28 PM MDT
Nautical Twilight 5:06 AM MDT 9:06 PM MDT
Astronomical Twilight 4:25 AM MDT 9:47 PM MDT
Moon 2:33 PM MDT (4/20) 3:17 AM MDT (4/20)
Length of Visible Light 14h 45m
Length of Day
13h 43m
Waxing Gibbous, 71% of the Moon is Illuminated
Apr 20
Waxing Gibbous
Apr 25
Full
May 2
Last Quarter
May 9
New
May 17
First Quarter

Hourly Weather History & Observations

Time (MDT) Temp. Windchill Dew Point Humidity Pressure Visibility Wind Dir Wind Speed Gust Speed Precip Events Conditions
12:53 AM 36.0 °F 28.5 °F 26.1 °F 67% 29.81 in 10.0 mi NW 10.4 mph - N/A   Overcast
1:53 AM 35.1 °F 29.3 °F 26.1 °F 70% 29.81 in 10.0 mi NW 6.9 mph - N/A   Mostly Cloudy
2:53 AM 37.0 °F 29.3 °F 26.1 °F 65% 29.81 in 10.0 mi NNW 11.5 mph - N/A   Mostly Cloudy
3:53 AM 36.0 °F 31.1 °F 28.0 °F 73% 29.83 in 10.0 mi North 5.8 mph 17.3 mph N/A   Scattered Clouds
4:53 AM 35.1 °F 31.0 °F 28.0 °F 76% 29.83 in 10.0 mi WSW 4.6 mph - N/A   Overcast
5:53 AM 34.0 °F 31.0 °F 26.1 °F 73% 29.84 in 10.0 mi Variable 3.5 mph - N/A   Scattered Clouds
6:53 AM 39.0 °F 33.4 °F 28.9 °F 67% 29.86 in 10.0 mi NNW 8.1 mph - N/A   Partly Cloudy
7:53 AM 39.0 °F - 30.0 °F 70% 29.88 in 10.0 mi Calm Calm - N/A   Mostly Cloudy
8:53 AM 45.0 °F 43.5 °F 28.9 °F 53% 29.86 in 10.0 mi Variable 3.5 mph - N/A   Overcast
9:53 AM 48.0 °F - 27.0 °F 44% 29.86 in 10.0 mi NNW 6.9 mph - N/A   Overcast
10:53 AM 50.0 °F - 26.1 °F 39% 29.86 in 10.0 mi Calm Calm - N/A   Overcast
11:53 AM 48.0 °F - 30.0 °F 50% 29.89 in 10.0 mi NW 4.6 mph - 0.00 in   Overcast
12:53 PM 50.0 °F - 30.0 °F 46% 29.87 in 10.0 mi Calm Calm - 0.00 in   Overcast
1:53 PM 52.0 °F - 28.9 °F 41% 29.86 in 10.0 mi North 4.6 mph - N/A   Mostly Cloudy
2:53 PM 51.1 °F - 32.0 °F 48% 29.84 in 10.0 mi North 15.0 mph 24.2 mph 0.00 in   Overcast
3:03 PM 48.2 °F - 32.0 °F 54% 29.87 in 10.0 mi North 16.1 mph 24.2 mph N/A   Overcast
3:53 PM 51.1 °F - 35.1 °F 54% 29.83 in 10.0 mi SSW 11.5 mph - N/A   Scattered Clouds
4:53 PM 48.9 °F - 32.0 °F 52% 29.86 in 10.0 mi Variable 3.5 mph - 0.00 in   Overcast
5:53 PM 44.1 °F 39.5 °F 36.0 °F 73% 29.90 in 10.0 mi WSW 8.1 mph - N/A   Overcast
6:53 PM 46.0 °F 40.2 °F 35.1 °F 66% 29.88 in 10.0 mi NNW 12.7 mph - 0.00 in   Overcast
7:53 PM 42.1 °F - 33.1 °F 70% 29.89 in 10.0 mi Calm Calm - N/A   Clear
8:53 PM 41.0 °F 37.1 °F 35.1 °F 79% 29.90 in 10.0 mi SW 5.8 mph - N/A   Mostly Cloudy
9:53 PM 45.0 °F 38.5 °F 28.9 °F 53% 29.88 in 10.0 mi West 13.8 mph - N/A   Mostly Cloudy
10:53 PM 43.0 °F 38.2 °F 28.0 °F 56% 29.90 in 10.0 mi WNW 8.1 mph - N/A   Mostly Cloudy
11:53 PM 43.0 °F 37.2 °F 27.0 °F 53% 29.91 in 10.0 mi NNW 10.4 mph - N/A   Partly Cloudy